Hourly Data Report for September 11, 2017

All times are specified in Local Standard Time (LST). Add 1 hour to adjust for Daylight Saving Time where and when it is observed.

PANGNIRTUNG
NUNAVUT

66°08'36.300" N
65°42'40.500" W
22.60 m
2403049
71826
WXP

Download Data

Hourly Data (September 2017)
Hourly Data Report for September 11, 2017
Temp Definition
°C
Dew Point Temp Definition
°C
Rel Hum Definition
%
Wind Dir Definition
10's deg

Wind Spd Definition
km/h
Visibility Definition
km
Stn Press Definition
kPa
Hmdx Definition


Wind Chill Definition


Weather Definition


TIME
00:00 0.5 -3.1 77 27 26   100.59     LegendNANA
01:00 0.9 -2.9 76 25 27   100.60     LegendNANA
02:00 1.0 -3.1 74 27 30   100.68     LegendNANA
03:00 1.1 -3.1 74 27 32   100.70     LegendNANA
04:00 1.0 -4.2 68 28 26   100.73     LegendNANA
05:00 0.9 -3.5 72 28 20   100.76     LegendNANA
06:00 0.9 -4.4 68 27 21   100.79     LegendNANA
07:00 1.3 -5.2 62 26 18   100.77     LegendNANA
08:00 1.2 -4.8 64 26 21   100.80     LegendNANA
09:00 2.0 -3.5 67 28 12   100.74     LegendNANA
10:00 1.7 -3.2 70 26 20   100.76     LegendNANA
11:00 2.1 -2.1 74 26 21   100.77     LegendNANA
12:00 2.3 -1.8 75 25 15   100.75     LegendNANA
13:00 2.4 -1.0 78 25 16   100.72     LegendNANA
14:00 2.0 -0.4 84 25 21   100.68     LegendNANA
15:00 2.2 -0.1 85 26 22   100.67     LegendNANA
16:00 2.4 -0.1 83 25 19   100.66     LegendNANA
17:00 2.1 -0.8 81 25 22   100.63     LegendNANA
18:00 0.7 -1.3 86 25 13   100.64     LegendNANA
19:00 1.8 -1.9 76 23 13   100.59     LegendNANA
20:00 0.5 -2.0 83 16 1   100.56     LegendNANA
21:00 0.6 -2.1 82 12 8   100.50     LegendNANA
22:00 0.6 -2.1 82 12 7   100.46     LegendNANA
23:00 0.0 -2.4 84 14 5   100.39   -2 LegendNANA

Notes on Data Quality.

Legend

  • E = Estimated
  • M = Missing
  • NA = Not Available
  • ‡ = Partner data that is not subject to review by the National Climate Archives
Date modified: